Regional Weather Roundup
Issued by NWS

Home | Current Version | Previous Version | Text Only | Print | Product List | Glossary Off
Versions: 1 2 3 4 5 6 7 8 9 10 11 12 13 14 15 16 17 18 19 20 21 22 23 24 25 26 27 28 29 30 31 32 33 34 35 36 37 38 39 40 41 42 43 44 45 46 47 48 49 50

000
ASUS43 KLOT 020810
RWRIL

ILLINOIS REGIONAL WEATHER ROUNDUP
NATIONAL WEATHER SERVICE CHICAGO/ROMEOVILLE IL
300 AM CDT TUE SEP 02 2014

NOTE: "FAIR" INDICATES FEW OR NO CLOUDS BELOW 12,000 FEET WITH NO
SIGNIFICANT WEATHER AND/OR OBSTRUCTIONS TO VISIBILITY.

* THESE STATIONS ARE NOT UNDER NWS QUALITY CONTROL. THEY ALSO MAY NOT
  REPORT WEATHER SUCH AS PRECIPITATION OR FOG.

ILZ001-002-007-009-015-016-024-020900-
NORTHWEST ILLINOIS

CITY           SKY/WX    TMP DP  RH WIND       PRES   REMARKS
MOLINE         FOG       66  64  93 CALM      29.88R VSB 1
STERLING*      PTCLDY    66  63  88 CALM      29.88S
SAVANNA*       FOG       62  61  94 CALM      29.87S VSB 1/4
$$

ILZ003-004-008-010-011-017-018-020900-
NORTH CENTRAL ILLINOIS

CITY           SKY/WX    TMP DP  RH WIND       PRES   REMARKS
ROCKFORD       CLEAR     65  63  93 S3        29.88R
FREEPORT*      CLEAR     63  61  95 CALM      29.90R
ROCHELLE*      PTCLDY    65  64  96 CALM      29.88S FOG
DE KALB*       PTCLDY    64  64  97 W5        29.88S
PERU*          MOCLDY    68  66  94 NW6       29.88S
$$

ILZ005-006-012>014-019>023-020900-
NORTHEAST ILLINOIS

CITY           SKY/WX    TMP DP  RH WIND       PRES   REMARKS
CHICAGO-OHARE  MOCLDY    69  65  86 W5        29.87R
CHICAGO-MIDWAY CLOUDY    72  68  87 W5        29.86R
AURORA         MOCLDY    67  64  90 W3        29.87R FOG
LANSING*         N/A    N/A N/A N/A MISG        N/A
JOLIET*        CLOUDY    68  65  90 CALM      29.87R
WAUKEGAN       MOCLDY    67  65  93 CALM      29.85S
DUPAGE AIRPORT MOCLDY    67  65  93 CALM      29.87R
KANKAKEE*      CLOUDY    69  67  95 S8        29.89R
WHEELING       CLOUDY    70  67  90 S5        29.88R
MORRIS*        MOCLDY    68  68 100 NW3       29.88R
ROMEOVILLE*    MOCLDY    67  67  97 NW3       29.87R
NORTHERLY ISL    N/A     73  66  78 W3          N/A
$$

LMZ740>746-020900-
SOUTHERN LAKE MICHIGAN

STATION/POSITION SKY/WX   TEMP    WIND        PRES    VSBY  WAVE
                          AIR SEA DIR/SP/G                  HT/PER
                          (F)     (DEG/KT/KT) (MB)    (MI)  (FT/S)
SOUTHERN BUOY              70 70  260/  6/  8 1010.6R         1/ 4
WAUKEGAN HARBOR            69     280/  5/  7   N/A
HARRISON CRIB              72     290/  7/  8   N/A
BURNHAM HARBOR             72     260/  6/  7   N/A
CALUMET HARBOR             72     210/  5/  8 1009.4S
MICHIGAN CITY              72     230/ 10/ 12   N/A
MICHIGAN CITY 6N           72 72  200/ 10/ 12   N/A           2/ 3
ST. JOSEPH                 72 72  200/  8/ 12   N/A           3/ 4
$$

ILZ025>027-034>036-040-047-049-050-058-095>099-020900-
WEST-CENTRAL ILLINOIS

CITY           SKY/WX    TMP DP  RH WIND       PRES   REMARKS
QUINCY         CLOUDY    70  68  93 SW8       29.90R
GALESBURG*     CLOUDY    67  66  96 CALM      29.89S
MACOMB*        CLOUDY    68  68  99 W3        29.90F
JACKSONVILLE*  CLOUDY    71  70  95 S7        29.90F
PITTSFIELD*    CLOUDY    69  67  92 S6        29.90F
$$

ILZ028>032-037-038-041>044-048-051>054-059>061-020900-
CENTRAL ILLINOIS

CITY           SKY/WX    TMP DP  RH WIND       PRES   REMARKS
PONTIAC        CLOUDY    72  70  94 S10       29.88F
DECATUR        LGT RAIN  69  67  93 S14       29.91F
PEORIA         CLOUDY    72  68  87 SW6       29.88F
LACON*         CLOUDY    71  66  86 W5        29.87S
LINCOLN*       CLOUDY    71  69  94 S6        29.87F
SPRINGFIELD    LGT RAIN  70  69  97 S10       29.92R
TAYLORVILLE    RAIN      68  66  94 S9        29.92F
$$

ILZ033-039-045-046-055>057-062-063-020900-
EAST-CENTRAL ILLINOIS

CITY           SKY/WX    TMP DP  RH WIND       PRES   REMARKS
CHAMPAIGN      LGT RAIN  68  67  96 S6        29.93R
DANVILLE*      LGT RAIN  67  65  96 SW6       29.92R
RANTOUL*       LGT RAIN  70  67  88 SW7       29.93S
MATTOON        HVY RAIN  69  67  93 S8        29.94R FOG
PARIS*         HVY RAIN  67  67  98 S9        29.94S
$$

ILZ079-100>102-020900-
SOUTHWEST ILLINOIS

CITY           SKY/WX    TMP DP  RH WIND       PRES   REMARKS
BELLEVILLE     LGT RAIN  69  69 100 SW2       29.94F
SPARTA*        LGT RAIN  69  67  96 N5        29.96S
$$

ILZ064>066-069>071-074>076-080>082-084>086-088>090-092>094-020900-
SOUTH-CENTRAL ILLINOIS

CITY           SKY/WX    TMP DP  RH WIND       PRES   REMARKS
CARBONDALE     CLOUDY    79  71  76 SW13      29.92R HX  82
CAIRO*         CLOUDY    78  73  83 S5        29.95S HX  81
EFFINGHAM*     CLOUDY    68  65  91 W3        29.96R
MARION         CLOUDY    81  73  78 SW9       29.92F HX  85
MT. VERNON     CLOUDY    72  66  83 CALM      29.93R THUNDER
CENTRALIA*     RAIN      68  66  94 NW6       29.95F
SALEM*         CLOUDY    70  69  97 N7        29.96S
METROPOLIS*    CLOUDY    78  73  83 SW7       29.94F HX  81
$$

ILZ067-068-072-073-078-083-087-091-020900-
SOUTHEAST ILLINOIS

CITY           SKY/WX    TMP DP  RH WIND       PRES   REMARKS
LAWRENCEVILLE  TSTM      68  67  96 N15       29.95R VSB 1
FLORA*         TSTM      67  67  98 E7        29.97R VSB 3/4
FAIRFIELD*     TSTM      72  70  94 N13G22    29.96R
HARRISBURG*    CLOUDY    77  73  87 SW8       29.93F
ROBINSON*      CLOUDY    69  68  97 NW3       29.96R
CARMI*         CLOUDY    78  74  88 S7        29.91F HX  80
$$

ABBREVIATIONS USED IN REMARKS
   TC - TEMPERATURE IN CELSIUS
  WCI - WIND CHILL INDEX
   HX - HEAT INDEX
  VSB - VISIBILITY
$$



USA.gov is the U.S. government's official web portal to all federal, state and local government web resources and services.